Location: Marion Hill
(40.7303°N, 80.2959°W)
Time: 08:29:53
(UTC+00:00)

YAOGAN 1 - Pass Details

Date: 29 October 2020
Orbit: 618 x 620 km, 97.9° (Epoch: 28 November)

Event Time Altitude Azimuth Distance (km) Brightness Sun altitude
Rises 23:41:16 0° 154° (SSE) 2,883 5.8 -15.8°
Reaches altitude 10° 23:43:29 10° 149° (SSE) 1,982 4.9 -16.2°
Maximum altitude 23:47:40 52° 73° (ENE) 771 2.6 -17.0°
Drops below altitude 10° 23:51:53 10° 357° (N) 1,996 5.2 -17.8°
Sets 23:54:07 0° 353° (N) 2,906 6.1 -18.3°
